National Oceanic Atmosphere Administration National Weather Service Headquarters National Weather Service Headquarters
NOAA logo WFO Anchorage Scalable transition graphic NWS logo
Transition from title bar to navgation bar   Aviation Weather 13 AKST 
blankspace Home   |   Mobile   |   Social Media   |   Mesonet   |   Surface Map   |   Radar   |   Submit Storm Reports   |   News =22 GMT 

LocalForecast by City, St or Zip Code

spacer

Forecasts/Products
  Public
  Forecast Discussion
    - With Glossary
  Aviation
  Marine
  Hydrology(RFC)
  Rivers & Lakes AHPS
  Ice Desk
  TV Weather
  Fire Weather
  Avalanche
  Travel 511
  Graphical
  xml logo RSS Feeds
  Marine FTPMail

spacer

Data
  Mesonet
  Model Graphics
  Local Model
  Observations
  Marine Obs
  Satellite/Radar
  Vent Factor
  Soaring Index
  Weather Links

spacer

Climate
  PAFC Climate
  Interactive Climate
  PAFC Records
  Local
  National
  More

spacer

Outreach
  About Us
  Community Outreach
  Kids' Page
  Tour/Speaker Request
  Weather Classroom
  Social Media

spacer

Reports
  COOP Observers
  Local Storm Reports
  Spotter Page
  Submit a Storm Report

spacer

Miscellaneous
  Archived Alaska Weather Stories
  Student Career Opportunities
  Research Papers

spacer

Print Friendly/
Low Bandwidth

  Public Forecasts
  Marine Forecasts

spacer

Contact Us
  mailto pafcweb

spacer

Facebook Follow the National Weather Service in Alaska on Twitter
USA.gov is the U.S. government's official web portal to all federal, state and local government web resources and services.


 ICAO ID:   AAWU Graphics

Internet access to TAFs and METAR observations is for planning purposes only. We can not guarantee the timeliness of internet products. Before flying please get a formal pilot briefing (1-800-992-7433) and ALWAYS file a Flight Plan!Pilot briefings are provided to licensed aircraft pilots, ONLY! Others may not use the above number to obtain weather information.

Check out the Key to TAFs and METARs for help with decoding the information.

A 12 hour summary of TAFs can be found here.

PABI TAF
PABI 2804/ VRB06KT 9999 FEW020 SCT090 QNH3042INS

 
      BECMG 2705/2706 VRB06KT 9999 SCT040 BKN060 620604 QNH3033INS
      TXM10/2800Z TNM23/2714Z AMD 270433
      LAST NO AMDS AFT 2704
      NEXT 0114=


METAR PABI 282153Z 10009KT 10SM FEW100 OVC200 M17/M21 A3014 RMK AO2
     SLP259 T11671211=
METAR PABI 282153Z 10009KT 10SM FEW100 OVC200 M17/M21 A3014=
METAR PABI 282053Z COR 12009KT 10SM SCT080 OVC200 M17/M21 A3015 RMK AO2
     SLP260 T11671211 51003=
METAR PABI 282053Z COR 12009KT 10SM SCT080 OVC200 M17/M21 A3015=
METAR PABI 281953Z 11011KT 10SM BKN080 OVC200 M17/M21 A3015 RMK AO2
     SLP260 T11671211=
METAR PABI 281953Z 11011KT 10SM BKN080 OVC200 M17/M21 A3015=
METAR PABI 281853Z 11009KT 10SM BKN200 M17/M21 A3015 RMK SLP261
     T11671206 VIA AUTODIAL=


National Weather Service
Anchorage Forecast Office
6930 Sand Lake Road
Anchorage, Ak 99502
(907) 266-5105 M-F/7-5pm
About Us
Career Opportunities
Glossary
Disclaimer
Privacy Policy
Credits
Alaska Weather Information Line:
1-800-472-0391